Content
SEND FEEDBACK

Daily
Averages
Monthly
Summary
United States of America

AGANA, GUAM


Home > North America > United States > Guam
Elevation: 246 feet     Latitude: 13 29N     Longitude: 144 48E

WEATHER
 
SELECT A DAY
Number of Records: 213,928;   Date Range: 1/1/95 - 10/24/14
 
SHARE

PRINT THIS DATA

[ ← Previous Day ]
WEATHER ALMANAC - MARCH 28, 2013
[ Next Day → ]
[ °C ]   °F
Weather ElementAverageHighLow
Temperature84.2 °F90 °F (12:54 pm)80.1 °F (3:54 am)
Dewpoint71.8 °F73.9 °F (4:54 am)68 °F (10:54 am)
Humidity66.6 %81 % (4:54 am)48 % (12:54 pm)
Barometer29.88 in29.93 in (11:15 pm)29.81 in (3:54 pm)
Wind Speed14.2 mph23 mph (12:54 pm)
Wind Gust28.8 mph (1:54 pm)
Weather ElementAverage
Visibility10 mi
Wind DirectionENE (79.6 °)

Weather ElementTotal
Precipitation0.01 in
Cooling Degree Days20.1 (Base 65)
Growing Degree Days35.1 (Base 50)
Averaged from 25 records on March 28, 2013
WEATHER CONDITIONS BREAKOUT
WIND DIRECTION BREAKOUT
WEATHER BY HOUR - MARCH 28, 2013
[ °C ]   °F
Local TimeTemperatureDewpointHumidityBarometerVisibilityWind DirectionWind SpeedGust SpeedPrecipitationEventsConditions
1:54 AM82.0 °F72.0 °F71 %29.87 in10.0 miENE (70°)10.4 mphPartly Cloudy
2:54 AM82.0 °F71.1 °F69 %29.86 in10.0 miEast (80°)10.4 mphPartly Cloudy
3:54 AM80.1 °F72.0 °F76 %29.86 in10.0 miEast (80°)10.4 mph0.01 inMostly Cloudy
4:54 AM80.1 °F73.9 °F81 %29.87 in10.0 miENE (60°)12.7 mphPartly Cloudy
5:54 AM80.1 °F73.0 °F79 %29.88 in10.0 miENE (70°)10.4 mphClear
6:54 AM81.0 °F73.0 °F77 %29.91 in10.0 miENE (70°)11.5 mphClear
7:54 AM82.9 °F72.0 °F69 %29.92 in10.0 miEast (80°)12.7 mph20.7 mphPartly Cloudy
8:54 AM84.9 °F72.0 °F65 %29.92 in10.0 miEast (80°)20.7 mph26.5 mphPartly Cloudy
9:54 AM87.1 °F71.1 °F59 %29.92 in10.0 miEast (90°)19.6 mph27.6 mphPartly Cloudy
10:54 AM89.1 °F68.0 °F50 %29.90 in10.0 miEast (80°)17.3 mph24.2 mphPartly Cloudy
11:54 AM88.0 °F73.0 °F61 %29.88 in10.0 miEast (90°)19.6 mph27.6 mphPartly Cloudy
12:54 PM90.0 °F68.0 °F48 %29.85 in10.0 miEast (80°)23.0 mph27.6 mphScattered Clouds
1:54 PM90.0 °F71.1 °F54 %29.83 in10.0 miENE (70°)20.7 mph28.8 mphPartly Cloudy
2:54 PM88.0 °F71.1 °F57 %29.82 in10.0 miEast (90°)16.1 mph25.3 mphPartly Cloudy
3:54 PM87.1 °F72.0 °F61 %29.81 in10.0 miEast (80°)18.4 mph25.3 mphScattered Clouds
4:54 PM87.1 °F72.0 °F61 %29.81 in10.0 miEast (90°)15.0 mph23.0 mphPartly Cloudy
5:54 PM84.9 °F72.0 °F65 %29.83 in10.0 miEast (80°)15.0 mph23.0 mphPartly Cloudy
6:54 PM82.9 °F72.0 °F69 %29.84 in10.0 miEast (80°)13.8 mphPartly Cloudy
7:54 PM82.9 °F73.0 °F72 %29.87 in10.0 miEast (80°)10.4 mphScattered Clouds
8:54 PM82.9 °F73.0 °F72 %29.88 in10.0 miEast (80°)12.7 mphMostly Cloudy
9:54 PM82.9 °F72.0 °F69 %29.89 in10.0 miEast (90°)10.4 mphScattered Clouds
10:54 PM82.0 °F72.0 °F71 %29.90 in10.0 miEast (80°)9.2 mphMostly Cloudy
11:15 PM82.4 °F71.6 °F70 %29.93 in10.0 miEast (80°)11.5 mphMostly Cloudy
11:37 PM82.4 °F71.6 °F70 %29.93 in10.0 miEast (80°)13.8 mphMostly Cloudy
11:54 PM82.9 °F72.0 °F69 %29.91 in10.0 miEast (80°)9.2 mphScattered Clouds
Hourly data recorded from PGUM, located miles away from Agana, Guam







STORIES FROM OUR PARTNERS